Location: Newark
(58.8333°N, 23.5833°E)
Time: 02:12:09
(UTC+00:00)

A-11 Canister half - Pass Details

Date: 18 November 2019
Orbit: 1515 x 1685 km, 47.2° (Epoch: 13 December)

Event Time Altitude Azimuth Distance (km) Brightness Sun altitude
Rises 18:29:03 0° 243° (WSW) 4,919 12.2 -34.0°
Reaches altitude 10° 18:32:24 10° 237° (WSW) 3,941 11.5 -34.4°
Enters shadow 18:40:24 41° 188° (S) 2,292 9.7 -35.4°
Maximum altitude 18:41:39 42° 172° (S) 2,248 - -35.5°
Drops below altitude 10° 18:50:52 10° 106° (ESE) 3,924 - -36.6°
Sets 18:54:12 0° 100° (E) 4,896 - -37.0°
